Regional Weather Roundup
Issued by NWS

Home | Current Version | Previous Version | Text Only | Print | Product List | Glossary On
Versions: 1 2 3 4 5 6 7 8 9 10 11 12 13 14 15 16 17 18 19 20 21 22 23 24 25 26 27 28 29 30 31 32 33 34 35 36 37 38 39 40 41 42 43 44 45 46 47 48 49 50
000
ASUS45 KABQ 250810
RWRNM
WEATHER ROUNDUP FOR NEW MEXICO
NATIONAL WEATHER SERVICE ALBUQUERQUE NM
200 AM MDT FRI APR 25 2014

NOTE: "FAIR" MEANS FEW OR NO CLOUDS BELOW 12,000 FEET AGL WITH NO
       SIGNIFICANT WEATHER OR OBSTRUCTIONS TO VISION.

      THIS PRODUCT IS RELEASED AS TWO VERSIONS.  ONE VERSION NEAR
      THE TOP OF THE HOUR CONTAINING PRELIMINARY DATA FROM ALBUQUERQUE
      AND OTHER STATIONS.  A FINAL VERSION WITH ADDITIONAL DATA IS
      ISSUED ABOUT 10 MINUTES AFTER THE HOUR.

NMZ501-503-504-510>518-250900-
NORTHWEST PLATEAU/NORTHCENTRAL MOUNTAINS

CITY           SKY/WX    TMP DP  RH WIND       PRES   REMARKS
FARMINGTON     CLEAR     38   5  25 NE8       30.00F WCI  32
LOS ALAMOS     CLEAR     52  -3  10 CALM      30.10F
SANTA FE       CLEAR     43  -3  14 NE10      30.05S
TAOS           CLEAR     28  -9  19 CALM      30.12F
ANGEL FIRE     FAIR      24   9  53 CALM      30.12F

$$
NMZ402-403-502-505>509-250900-
WESTCENTRAL MOUNTAINS/SOUTHWEST MOUNTAINS

CITY           SKY/WX    TMP DP  RH WIND       PRES   REMARKS
GALLUP         CLEAR     36   3  25 E5        30.08F WCI  32
GRANTS         CLEAR     35  -3  20 CALM      30.10S
SILVER CITY    CLEAR     46  14  27 N12       30.07S

$$
NMZ407-409-411-412-250900-
SOUTHERN DESERTS

CITY           SKY/WX    TMP DP  RH WIND       PRES   REMARKS
LORDSBURG      FAIR      61  16  17 W8        30.00F
DEMING         CLEAR     53  20  27 NW8       30.00S
LAS CRUCES     CLEAR     59  12  15 W7        30.00F
HOLLOMAN AFB   CLEAR     57  15  19 S6        29.98S
ALAMOGORDO     CLEAR     54  10  17 CALM      29.99S
T OR C         CLEAR     55  13  18 W8        29.99S

$$
NMZ519>523-250900-
CENTRAL VALLEYS/CENTRAL HIGHLANDS

CITY           SKY/WX    TMP DP  RH WIND       PRES   REMARKS
ALBUQUERQUE    CLEAR     52   6  15 NE8       30.02S
DOUBLE EAGLE   PTCLDY    45   3  17 NW7       30.04F
MORIARTY ARPT  FAIR      30   7  38 NE3       30.07F
CLINES CORNERS PTCLDY    46   5  18 W3        30.07F
BELEN          FAIR      46   4  17 NW8       30.02S
SOCORRO        FAIR      55  13  18 S3        29.99F

$$
NMZ524>526-539-540-250900-
SOUTHCENTRAL MOUNTAINS

CITY           SKY/WX    TMP DP  RH WIND       PRES   REMARKS
RUIDOSO        CLEAR     54   7  15 SW6       30.12F

$$
NMZ527>531-250900-
NORTHEAST HIGHLANDS/NORTHEAST PLAINS

CITY           SKY/WX    TMP DP  RH WIND       PRES   REMARKS
LAS VEGAS      CLEAR     45  -3  13 SW10      30.06F
RATON          CLEAR     44   4  19 NE7       29.99F
CLAYTON        CLEAR     50  21  32 SW12      29.94F

$$
NMZ532>537-250900-
EASTCENTRAL PLAINS

CITY           SKY/WX    TMP DP  RH WIND       PRES   REMARKS
TUCUMCARI      CLEAR     56  20  24 VRB5      29.95R
CANNON AFB     CLEAR     51  25  35 S6        30.00F
CLOVIS AIRPORT CLEAR     45  25  45 S10       30.02F

$$
NMZ028-029-538-250900-
SOUTHEAST PLAINS

CITY           SKY/WX    TMP DP  RH WIND       PRES   REMARKS
ROSWELL        CLEAR     53  22  29 SW6       29.96S
ARTESIA        CLEAR     54  25  32 S12       29.96F
CARLSBAD       CLEAR     60  22  23 S12       29.96F
HOBBS          CLEAR     55  25  30 S6        30.00F


$$



USA.gov is the U.S. government's official web portal to all federal, state and local government web resources and services.